STARLINK-32808, 62863

Orbit data source: Space-Track

STARLINK-32808, 62863 is a payload satellite owned by SpaceX/Seattle (US) in LEO that was launched on Sat, 01 Feb 2025 UTC via an FALCON 9 launch vehicle from the Air Force Western Test Range (AFWTR). Payload-class satellites include a variety of spacecraft equipped with specific instruments for various scientific and technological missions. These include communications satellites like Starlink; space stations such as the ISS; scientific satellites like the Hubble; Earth observation satellites from companies like Planet Labs, Umbra, and HawkEye 360; GPS; miniature CubeSats for education and research; and military/defense satellites.

Loading next visibility...
Identifier
62863, 2025-022K
Orbit
LEO
Country
Flag of USUS
Related business
Manufacturer
SpaceX/Seattle
Mission
Operational Commercial Communications
Bus & Motor
STARLINK V2M, Unknown motor
Mass
730 kg wet, ~700 kg dry
Launch date (UTC)
2025-02-01 (9 months ago)
Launch vehicle
FALCON 9
Launch site
Air Force Western Test Range (AFWTR)
Object type
Payload
Rocket body
Debris
Shape & HBR
Box + 2 Pan, 17.7 m
Radar Cross Section
33.884 m², Large (>1 m²)

Expand to show TLE details & history
Last TLE update: 11 hours ago

TLE from 11 hours ago
0 STARLINK-32808
1 62863U 25022K   25304.60104109  .00003375  00000-0  12601-3 0  9992
2 62863  53.1596   9.3887 0001211  89.3170 270.7969 15.30201615 42138
Epoch: 2025-10-31T14:25Z
TLE epoch observation values (Epoch: 2025-10-31T14:25:29.950Z)
Latitude
-0.00005°
Longitude
112.87074°
Altitude
476.098 km
Speed
7.629 km/s
True Right ascension
00h 37m 33s
True Declination
0° 00' 00"
Sunlit
Object was in full shadow at epoch
Visualization orbit readout
Latitude
Unknown
Longitude
Unknown
Altitude
Unknown
Speed
Unknown
Apparent Right ascension
Unknown
Apparent Declination
Unknown
Sunlit
N/A
Visualization observer readout
Local Sidereal Time
21:01:46
Azimuth
Unknown
Elevation
Unknown
Doppler factor
Unknown
Orbital elements
Apogee altitude
476.297 km
Perigee altitude
474.637 km
Semi-major axis
6,853.604 km
Eccentricity
0.00012
Inclination
53.1596°
RAAN
9.3887°
Arg. of periapsis
89.317°
True anomaly
270.78302°
Mean anomaly
270.7969°
Eccentric anomaly
270.78996°
Mean motion
3.82529 °/min
Orbital period
94.11 mins
BSTAR
0.00012601
Loading maneuver chart data...
Computing Atmospheric mass density...
Loading historical data...
Loading historical data...
Loading historical data...
Loading historical data...
Loading historical data...
Loading historical data...
Loading historical data...

Documentation

Showing up to 5 results
|